NO1K Weather Reports


time (UTC)temp
C
wind
direction
speed
KPH
gust
KPH
rain 1hr
cm
rain 24hr
cm
rain mn
cm
humidity
%
barometer
mb
20260504081508 6 82 0.0 0.0 0.00 0.00 0.00 87 1010.0
20260504050020 5 195 0.0 0.0 0.00 0.00 0.00 77 1010.2
20260504044534 4 195 0.0 0.0 0.00 0.00 0.00 78 1010.4
20260504043038 4 195 0.0 0.0 0.00 0.00 0.00 78 1010.4
20260504041513 3 195 0.0 0.0 0.00 0.00 0.00 75 1010.4
20260504040024 3 182 0.0 0.0 0.00 0.00 0.00 76 1010.5
20260504034523 3 182 0.0 0.0 0.00 0.00 0.00 77 1010.4
20260504033029 3 182 0.0 0.0 0.00 0.00 0.00 77 1010.4
20260504031518 2 182 0.0 1.6 0.00 0.00 0.00 78 1010.5
20260504030022 2 182 0.0 1.6 0.00 0.00 0.00 78 1010.4
20260504024525 2 105 0.0 0.0 0.00 0.00 0.00 79 1010.6
20260504023027 2 105 0.0 1.6 0.00 0.00 0.00 77 1010.5
20260504021518 2 197 0.0 0.0 0.00 0.00 0.00 78 1010.5
20260504020021 2 197 0.0 0.0 0.00 0.00 0.00 76 1010.8
20260504014504 2 197 0.0 0.0 0.00 0.00 0.00 74 1010.8
20260504013016 3 197 0.0 0.0 0.00 0.00 0.00 72 1010.7
20260504011517 3 279 0.0 0.0 0.00 0.00 0.00 70 1010.6
20260504010022 3 279 0.0 0.0 0.00 0.00 0.00 69 1010.2
20260504004515 5 279 0.0 0.0 0.00 0.00 0.00 66 1009.9
20260504003012 6 279 0.0 0.0 0.00 0.00 0.00 63 1009.8
20260504001520 7 279 0.0 0.0 0.00 0.00 0.00 62 1009.8
20260504000026 7 283 0.0 3.2 0.00 0.00 0.00 55 1009.7
20260503234516 8 227 0.0 0.0 0.00 0.00 0.00 48 1009.5
20260503233011 8 227 0.0 0.0 0.00 0.00 0.00 46 1009.4
20260503231521 9 227 0.0 3.2 0.00 0.00 0.00 45 1009.4
20260503230024 10 216 0.0 1.6 0.00 0.00 0.00 43 1009.3
20260503224509 10 214 0.0 1.6 0.00 0.00 0.00 43 1009.4
20260503223015 10 216 0.0 3.2 0.00 0.00 0.00 45 1009.4
20260503221519 10 233 0.0 1.6 0.00 0.00 0.00 46 1009.4
20260503220026 10 187 0.0 1.6 0.00 0.00 0.00 45 1009.3
20260503214532 10 29 1.6 4.8 0.00 0.00 0.00 43 1009.1
20260503213016 10 227 0.0 3.2 0.00 0.00 0.00 45 1009.2
20260503211524 10 220 0.0 3.2 0.00 0.00 0.00 44 1009.2
20260503210029 10 173 0.0 6.4 0.00 0.00 0.00 43 1009.2
20260503204512 10 204 0.0 6.4 0.00 0.00 0.00 45 1009.3
20260503203016 9 191 0.0 4.8 0.00 0.05 0.00 45 1009.4
20260503201521 9 206 0.0 6.4 0.00 0.05 0.00 45 1009.4
20260503200034 10 200 1.6 4.8 0.00 0.05 0.00 45 1009.5
20260503194514 10 197 1.6 11.3 0.00 0.05 0.00 46 1009.7
20260503193023 10 140 1.6 14.5 0.00 0.05 0.00 49 1009.9
20260503191526 9 179 3.2 11.3 0.00 0.05 0.00 45 1010.1
20260503190028 8 207 1.6 8.0 0.00 0.05 0.00 46 1010.2
20260503184517 9 146 3.2 8.0 0.00 0.05 0.00 45 1010.2
20260503183026 8 279 1.6 9.7 0.00 0.05 0.00 46 1010.1
20260503181524 8 54 4.8 8.0 0.00 0.05 0.00 47 1010.3
20260503180042 8 25 1.6 6.4 0.00 0.05 0.00 50 1010.4
20260503174525 8 161 3.2 8.0 0.00 0.05 0.00 48 1010.4
20260503173035 8 53 1.6 9.7 0.00 0.05 0.00 48 1010.3
20260503171505 8 180 3.2 9.7 0.00 0.05 0.00 46 1010.6